TURKSAT 4A

Last updated on Sun Jun 21 2026 00:03:06 GMT+0000 (Coordinated Universal Time)

1 39522U 14007A 26171.18649036 .00000141 00000+0 00000+0 0 9991 2 39522 0.0668 288.2837 0001004 16.0389 73.2267 1.00267919 44991
UTC large
Height (km)
Speed (km/s)
/
Latitude / Longitude
Inclination (degrees)
Orbital Period (minutes)
Azimuth
Elevation
Range (km)
Doppler Factor

Next 0 passes for location: London (51.5072 / 0.1276)

No passes found over London.
TURKSAT 4A